Other Public Products
Issued by NWS Charleston, SC

Current Version | Previous Version | Graphics & Text | Print | Product List | Glossary On
Versions: 1 2 3 4 5 6 7 8 9 10 11 12 13 14 15 16 17 18 19 20 21 22 23 24 25 26 27 28 29 30 31 32 33 34 35 36 37 38 39 40 41 42 43 44 45 46 47 48 49 50
704
FPUS82 KCHS 260112
OPUCHS

TEST...KCHS/KSAV Gateway Observations...TEST
National Weather Service Charleston SC
900 PM EDT MON SEP 25 2017

NOTE: "fair" indicates few or no clouds below 12,000 feet with no
significant weather and/or obstructions to visibility.

SCZ050-WAZ558-NCZ071-TXZ119-213-PAZ071-DCZ001-FLZ074-172-MI076-
NYZ176-178-MAZ016-IL014-TNZ027-NJZ106-GAZ044-MD014-260200-

...Gateway Observations for Charleston International...

CITY           SKY/WX    TMP DP  RH WIND       PRES   REMARKS
Chas Airport   MOCLDY    75  70  84 NE7       29.88R
Seattle        CLOUDY    64  54  69 W5        30.11S
Charlotte      MOCLDY    78  64  61 NE8       29.96R
Dallas DFW     CLOUDY    87  64  46 SE10      29.81R
Dallas Love    MOCLDY    87  63  44 SE15      29.81R
Philladelphia  CLOUDY    75  65  70 SE5       30.02S
Wash National  MOCLDY    80  70  71 SE7       29.99S
Baltimore      CLOUDY    77  68  73 E7        29.99R
Miami          CLOUDY    84  75  74 SW6       29.87R HX  92
Detroit        MOCLDY    78  64  61 SE3       29.99R
Newark         PTCLDY    72  66  81 S3        30.05R
Laguardia      PTCLDY    73  65  75 SE6       30.05R
J F K          PTCLDY    68  65  90 SE6       30.06S
Boston Logan   CLEAR     68  66  93 N5        30.07R
Ft. Lauderdale MOCLDY    83  76  79 SW6       29.86R HX  91
Chicago O`Hare PTCLDY    81  55  40 SE8       29.93R
Chicago Midway PTCLDY    82  59  45 SE7       29.94R
Houston Bush   MOCLDY    81  72  74 SE10      29.83R
Houston Hobby  PTCLDY    83  72  69 SE9       29.82R
Nashville      CLEAR     82  66  58 CALM      29.96R
Atlanta        CLEAR     79  61  53 E6        29.96R

$$

GAZ044-118-TXZ119-213-NCZ071-DCZ001-MDZ014-506-PAZ021-071-NJZ106-
NYZ176-178-MAZ106-OHZ011-021-055-MIZ076-KYZ091-ILZ014-INZ047-
MNZ060-ONZ431-260200-

...Gateway Observations for Savannah International...

CITY           SKY/WX    TMP DP  RH WIND       PRES   REMARKS
Savannah Arpt  CLEAR     77  68  73 NE7       29.88R
Atlanta        CLEAR     79  61  53 E6        29.96R
Charlotte      MOCLDY    78  64  61 NE8       29.96R
Dallas DFW     CLOUDY    87  64  46 SE10      29.81R
Houston Bush   MOCLDY    81  72  74 SE10      29.83R
Wash National  MOCLDY    80  70  71 SE7       29.99S
Wash Dulles    MOCLDY    76  68  76 CALM      30.00R
Baltimore      CLOUDY    77  68  73 E7        29.99R
Philadelphia   CLOUDY    75  65  70 SE5       30.02S
Newark         PTCLDY    72  66  81 S3        30.05R
Laguardia      PTCLDY    73  65  75 SE6       30.05R
J F K          PTCLDY    68  65  90 SE6       30.06S
Boston         CLEAR     68  66  93 N5        30.07R
Pittsburg      MOCLDY    77  64  64 CALM      30.03S
Akron          MOCLDY    78  59  51 S6        30.03S
Cleveland      CLOUDY    80  63  55 CALM      30.01S
Cincinnati     CLOUDY    77  66  68 SE3       29.99R
Columbus       CLEAR     74  64  69 SE5       29.99S
Detroit        MOCLDY    78  64  61 SE3       29.99R
Chicago O`Hare PTCLDY    81  55  40 SE8       29.93R
Minneapolis    LGT RAIN  60  58  92 N9G21     29.97S
Indianapolis   PTCLDY    79  61  53 S7        29.97R
Toronto Canada PTCLDY    77  64  65 S6        30.01R

$$




USA.gov is the U.S. government's official web portal to all federal, state and local government web resources and services.